FW4257 Weather Reports


time (UTC)temp
C
wind
direction
speed
KPH
gust
KPH
rain 1hr
cm
rain 24hr
cm
rain mn
cm
humidity
%
barometer
mb
20260504110239 11 317 0.0 4.8 0.00 1.27 1.22 96 1017.1
20260504100602 12 308 0.0 0.0 0.00 1.27 1.22 96 1016.6
20260504081740 12 256 0.0 0.0 0.00 1.27 1.22 95 1015.4
20260504081226 12 256 0.0 0.0 0.00 1.27 1.22 95 1015.3
20260504080706 12 256 0.0 0.0 0.00 1.27 1.22 95 1015.2
20260504080210 12 256 0.0 0.0 0.00 1.27 1.22 95 1015.2
20260504050337 13 246 1.6 12.9 0.00 1.02 0.97 92 1013.6
20260504045837 13 237 0.0 0.0 0.00 1.02 0.97 93 1013.6
20260504045338 13 241 0.0 4.8 0.00 1.02 0.97 92 1013.5
20260504044834 13 209 0.0 0.0 0.00 1.02 0.97 93 1013.5
20260504044337 13 196 0.0 3.2 0.00 1.02 0.97 93 1013.6
20260504043831 13 251 0.0 3.2 0.00 1.02 0.97 92 1013.5
20260504043010 13 259 3.2 16.1 0.00 1.02 0.97 92 1013.4
20260504042510 13 269 3.2 16.1 0.00 1.02 0.97 92 1013.3
20260504042020 13 257 3.2 12.9 0.00 1.02 0.97 93 1013.2
20260504041524 14 257 3.2 16.1 0.00 1.02 0.97 93 1013.3
20260504041024 14 261 1.6 16.1 0.00 1.02 0.97 94 1013.3
20260504040517 14 273 1.6 22.5 0.00 0.99 0.94 93 1013.1
20260504040005 14 302 3.2 22.5 0.00 0.99 0.94 93 1013.2
20260504035508 14 269 3.2 22.5 0.00 0.99 0.94 93 1013.3
20260504034708 14 289 1.6 22.5 0.00 0.99 0.94 93 1013.2
20260504034215 14 225 1.6 12.9 0.00 0.99 0.94 93 1013.2
20260504033413 15 297 0.0 16.1 0.00 0.99 0.94 94 1013.0
20260504032910 15 267 0.0 16.1 0.00 0.99 0.94 94 1013.0
20260504032420 15 267 1.6 16.1 0.00 0.99 0.94 93 1013.2
20260504031916 15 263 0.0 14.5 0.00 0.99 0.94 93 1013.2
20260504031417 15 292 1.6 14.5 0.00 0.99 0.94 93 1013.2
20260504030925 15 276 1.6 14.5 0.00 0.99 0.94 93 1013.2
20260504030427 15 269 1.6 14.5 0.00 0.99 0.94 93 1013.1
20260504025634 15 263 1.6 14.5 0.00 0.99 0.94 93 1013.4
20260504025116 15 265 0.0 14.5 0.00 0.99 0.94 93 1013.4
20260504024615 15 269 0.0 14.5 0.00 0.99 0.94 92 1013.4
20260504024123 15 288 1.6 12.9 0.00 0.99 0.94 92 1013.5
20260504023611 15 279 1.6 12.9 0.00 0.99 0.94 92 1013.6
20260504022759 16 281 1.6 12.9 0.00 0.99 0.94 91 1013.5
20260504022307 16 279 1.6 12.9 0.00 0.99 0.94 91 1013.5
20260504021802 16 279 1.6 24.1 0.00 0.99 0.94 90 1013.7
20260504021242 16 325 3.2 24.1 0.00 0.99 0.94 90 1013.8
20260504020743 16 319 4.8 24.1 0.00 0.99 0.94 90 1013.8
20260504020249 16 331 4.8 24.1 0.00 0.99 0.94 89 1013.8
20260504015748 16 351 6.4 19.3 0.00 0.99 0.94 89 1014.0
20260504015230 16 322 6.4 19.3 0.00 0.99 0.94 89 1014.0
20260504014712 16 316 4.8 17.7 0.00 0.99 0.94 90 1014.0
20260504014213 16 11 3.2 17.7 0.00 0.99 0.94 91 1014.1
20260504013656 16 285 1.6 12.9 0.00 0.99 0.94 92 1014.1
20260504012254 16 342 4.8 16.1 0.00 0.99 0.94 92 1014.3
20260504011741 16 0 3.2 16.1 0.00 0.99 0.94 92 1014.3
20260504011250 16 317 3.2 16.1 0.00 0.99 0.94 92 1014.4
20260504010730 16 331 4.8 16.1 0.00 0.99 0.94 93 1014.4
20260504010227 16 312 4.8 16.1 0.00 0.99 0.94 93 1014.4
20260504005733 16 335 4.8 14.5 0.00 0.99 0.94 93 1014.5
20260504004914 16 317 4.8 14.5 0.00 0.99 0.94 94 1014.4
20260504004420 16 346 4.8 14.5 0.00 0.99 0.94 94 1014.6
20260504003901 15 329 4.8 20.9 0.00 0.99 0.94 94 1014.6
20260504003040 15 355 6.4 20.9 0.00 0.99 0.94 94 1014.6
20260504002549 15 311 6.4 20.9 0.00 0.99 0.94 94 1014.6
20260504002039 15 327 4.8 17.7 0.00 0.99 0.94 94 1014.5
20260504001537 15 325 4.8 16.1 0.00 0.99 0.94 94 1014.5
20260504001036 15 21 3.2 16.1 0.00 0.99 0.94 94 1014.6
20260504000518 15 327 3.2 17.7 0.00 0.99 0.94 94 1014.6
20260504000005 15 337 4.8 17.7 0.00 0.99 0.94 94 1014.6
20260503235510 15 346 4.8 17.7 0.00 0.99 0.94 95 1014.7
20260503235017 15 355 3.2 17.7 0.00 0.99 0.94 95 1014.6
20260503234527 15 327 4.8 16.1 0.00 0.99 0.94 95 1014.7
20260503234016 15 345 4.8 16.1 0.00 0.99 0.94 94 1014.7
20260503232858 15 340 3.2 12.9 0.00 0.97 0.94 95 1014.8
20260503232402 15 320 3.2 14.5 0.00 0.97 0.94 95 1014.9
20260503231903 15 333 3.2 14.5 0.00 0.97 0.94 95 1015.0
20260503231403 15 315 3.2 17.7 0.00 0.97 0.94 95 1015.0
20260503230844 15 321 3.2 17.7 0.00 0.97 0.94 95 1015.0
20260503230326 15 11 6.4 17.7 0.00 0.97 0.94 95 1015.0
20260503225811 15 344 6.4 17.7 0.00 0.97 0.94 95 1014.9
20260503224958 15 326 4.8 19.3 0.08 0.97 0.94 96 1015.0
20260503224451 15 355 6.4 19.3 0.08 0.97 0.94 96 1014.9
20260503223957 15 329 8.0 19.3 0.08 0.97 0.94 96 1014.6
20260503223456 15 16 8.0 19.3 0.08 0.94 0.94 96 1014.7
20260503222957 15 355 8.0 17.7 0.08 0.94 0.91 96 1014.7
20260503222448 15 345 6.4 17.7 0.18 0.94 0.91 96 1014.6
20260503221940 15 5 4.8 16.1 0.43 0.94 0.91 96 1014.7
20260503221433 15 324 4.8 16.1 0.36 0.91 0.86 96 1014.8
20260503220933 15 13 6.4 16.1 0.13 0.86 0.84 96 1014.9
20260503220439 15 0 4.8 20.9 0.18 0.86 0.84 96 1014.9
20260503215923 15 350 4.8 20.9 0.08 0.84 0.81 96 1014.9
20260503214819 15 5 3.2 20.9 0.08 0.84 0.79 96 1014.9
20260503214326 15 345 4.8 14.5 0.08 0.84 0.79 96 1014.8
20260503213815 15 355 4.8 16.1 0.08 0.81 0.76 96 1014.8
20260503213315 15 5 4.8 16.1 0.08 0.81 0.76 96 1014.6
20260503212822 15 355 3.2 16.1 0.08 0.79 0.74 96 1014.7
20260503212305 15 267 3.2 16.1 0.10 0.79 0.74 96 1014.8
20260503211749 15 325 1.6 11.3 0.25 0.79 0.74 96 1014.8
20260503211248 15 323 1.6 11.3 0.51 0.76 0.74 96 1014.7
20260503210750 15 348 1.6 11.3 0.18 0.71 0.66 96 1014.7
20260503210239 15 340 1.6 11.3 0.18 0.71 0.66 96 1014.8
20260503205726 15 328 1.6 11.3 0.00 0.69 0.64 96 1014.7
20260503205233 15 324 1.6 3.2 0.00 0.66 0.64 96 1014.7
20260503204713 15 337 3.2 12.9 0.00 0.66 0.64 96 1014.5
20260503204154 15 335 3.2 14.5 0.00 0.66 0.64 96 1014.4
20260503203635 15 328 3.2 14.5 0.00 0.66 0.64 96 1014.4
20260503203133 15 347 3.2 14.5 0.00 0.66 0.64 96 1014.5
20260503202626 15 9 1.6 14.5 0.00 0.66 0.64 96 1014.4
20260503202118 15 315 1.6 11.3 0.00 0.66 0.64 96 1014.4
20260503201324 15 325 1.6 11.3 0.00 0.66 0.64 96 1014.5
20260503200813 15 336 0.0 8.0 0.00 0.66 0.64 96 1014.4
20260503200014 15 323 1.6 12.9 0.00 0.66 0.64 96 1014.3
20260503195459 15 314 1.6 12.9 0.00 0.66 0.64 96 1014.3
20260503194949 15 351 1.6 12.9 0.00 0.66 0.64 96 1014.4
20260503194458 15 331 1.6 12.9 0.00 0.66 0.64 96 1014.4
20260503193949 15 321 1.6 8.0 0.00 0.66 0.64 96 1014.3
20260503193433 15 345 0.0 8.0 0.00 0.66 0.64 96 1014.3
20260503192926 15 338 0.0 4.8 0.00 0.66 0.64 96 1014.4
20260503192406 15 327 0.0 0.0 0.00 0.66 0.64 96 1014.3
20260503191900 15 327 0.0 1.6 0.00 0.66 0.64 96 1014.4
20260503191355 15 332 0.0 0.0 0.00 0.66 0.64 96 1014.5
20260503190847 15 331 0.0 0.0 0.00 0.66 0.64 96 1014.2
20260503190336 15 325 0.0 0.0 0.00 0.66 0.64 96 1014.3
20260503185844 15 325 0.0 3.2 0.00 0.66 0.64 96 1014.5
20260503185345 15 349 0.0 4.8 0.00 0.66 0.64 96 1014.5
20260503184841 15 307 0.0 4.8 0.00 0.66 0.64 96 1014.6
20260503184322 15 326 0.0 0.0 0.00 0.66 0.64 96 1014.6
20260503183811 15 327 0.0 1.6 0.00 0.66 0.64 96 1014.6
20260503183314 15 327 0.0 1.6 0.00 0.66 0.64 96 1014.6
20260503182808 15 327 0.0 0.0 0.00 0.66 0.64 96 1014.6
20260503182012 15 329 0.0 1.6 0.00 0.66 0.64 96 1014.6
20260503181508 15 327 0.0 0.0 0.00 0.66 0.64 96 1014.8
20260503181002 15 327 0.0 0.0 0.00 0.66 0.64 96 1014.8
20260503180504 15 327 0.0 0.0 0.00 0.64 0.61 96 1014.9
20260503175957 15 327 0.0 0.0 0.08 0.64 0.61 96 1014.8
20260503175506 15 327 0.0 0.0 0.08 0.64 0.61 96 1014.9
20260503175009 15 327 0.0 1.6 0.08 0.64 0.61 96 1015.0
20260503174510 15 327 0.0 1.6 0.08 0.64 0.61 96 1015.1
20260503174010 15 325 0.0 3.2 0.08 0.64 0.58 96 1015.1
20260503173206 15 323 0.0 0.0 0.33 0.64 0.58 96 1015.1
20260503172705 15 323 0.0 0.0 0.08 0.61 0.56 96 1015.2
20260503172200 15 323 0.0 0.0 0.08 0.58 0.56 96 1015.1
20260503171647 15 322 0.0 0.0 0.13 0.58 0.56 95 1015.1
20260503170851 15 323 0.0 0.0 0.36 0.56 0.56 95 1015.3
20260503170330 15 322 0.0 0.0 0.00 0.56 0.51 95 1015.5
20260503150636 15 319 0.0 0.0 0.28 0.41 0.36 94 1016.5
20260503150139 15 319 0.0 3.2 0.61 0.38 0.36 94 1016.6
20260503131131 16 263 0.0 11.3 0.00 0.00 0.00 88 1017.3
20260503130633 16 283 0.0 0.0 0.00 0.00 0.00 88 1017.1
20260503130136 16 262 0.0 11.3 0.00 0.00 0.00 88 1017.1
20260503120150 15 288 0.0 0.0 0.00 0.00 0.00 81 1017.3